Torna al catalogo

STARLINK-34536

AttivoComunicazioniVLEO
NORAD 64748·PAYLOAD·🇺🇸 United States

Lanciato Jul 2, 2025 da Cape Canaveral Space Force Station

Loading…

Prossimi Passaggi (prossime 24 ore)

TLE

AggiornatoSource: CelesTrak SupGP

Epoca: Sep 15, 2026, 02:53 UTC

1 64748C 25144AA  26258.12062500  .00033490  00000+0  98957-3 0  2581
2 64748  53.1612  20.6566 0001006  81.5543 201.9752 15.34370959    10

Traccia STARLINK-34536 in tempo reale con AllMySat

Download on the App Store